This is the latest recevied weather packets stored in our database for station/object SA6BET-2. If no packets are shown the sender has not sent any weather packets the latest 10 day(s).
| Time | Temp. | Humidity | Pressure | Rain* | Wind** | Luminosity | Snow |
|---|---|---|---|---|---|---|---|
| 1788091632 | 32.22° C | 100% | 1020.3 hPa | - | - | - | - |
| 1788090732 | 32.22° C | 100% | 1020.3 hPa | - | - | - | - |
| 1788089832 | 31.11° C | 100% | 1020.4 hPa | - | - | - | - |
| 1788088932 | 30° C | 100% | 1020.4 hPa | - | - | - | - |
| 1788088032 | 29.44° C | 100% | 1020.6 hPa | - | - | - | - |
| 1788087131 | 30° C | 100% | 1020.5 hPa | - | - | - | - |
| 1788086231 | 28.89° C | 100% | 1020.5 hPa | - | - | - | - |
| 1788085331 | 31.67° C | 100% | 1020.5 hPa | - | - | - | - |
| 1788084431 | 31.11° C | 100% | 1020.5 hPa | - | - | - | - |
| 1788083531 | 30.56° C | 100% | 1020.5 hPa | - | - | - | - |
| 1788082631 | 29.44° C | 100% | 1020.5 hPa | - | - | - | - |
| 1788081730 | 28.89° C | 100% | 1020.5 hPa | - | - | - | - |
| 1788080830 | 28.89° C | 100% | 1020.3 hPa | - | - | - | - |
| 1788079930 | 27.78° C | 100% | 1020.4 hPa | - | - | - | - |
| 1788079030 | 27.22° C | 100% | 1020.3 hPa | - | - | - | - |
| 1788078130 | 26.67° C | 100% | 1020.1 hPa | - | - | - | - |
| 1788077230 | 25.56° C | 100% | 1020.1 hPa | - | - | - | - |
| 1788076329 | 24.44° C | 100% | 1020.2 hPa | - | - | - | - |
| 1788075429 | 23.33° C | 100% | 1020.1 hPa | - | - | - | - |
| 1788074529 | 23.89° C | 100% | 1020 hPa | - | - | - | - |
| 1788073629 | 22.78° C | 100% | 1019.9 hPa | - | - | - | - |
| 1788072729 | 22.78° C | 100% | 1019.7 hPa | - | - | - | - |
| 1788071828 | 22.78° C | 100% | 1019.7 hPa | - | - | - | - |
| 1788070928 | 22.22° C | 100% | 1019.7 hPa | - | - | - | - |
| 1788070028 | 21.67° C | 100% | 1019.6 hPa | - | - | - | - |
* Rain since midnight (hover to see other rain measurements)
** Current wind speed in m/s (hover to see current wind gust speed)